status,avgMeasuredTime,avgSpeed,extID,medianMeasuredTime,TIMESTAMP,vehicleCount,_id,REPORT_ID
OK,62,64,629,62,2014-08-01T07:50:00,10,20746181,193348
OK,66,60,629,66,2014-08-01T07:55:00,8,20746353,193348
OK,67,59,629,67,2014-08-01T08:00:00,8,20746684,193348
OK,70,57,629,70,2014-08-01T08:05:00,11,20747133,193348
OK,72,55,629,72,2014-08-01T08:10:00,10,20747506,193348
OK,71,56,629,71,2014-08-01T08:15:00,8,20747955,193348
OK,110,36,629,110,2014-08-01T08:20:00,10,20748404,193348
OK,110,36,629,110,2014-08-01T08:25:00,11,20748853,193348
OK,66,60,629,66,2014-08-01T08:30:00,14,20749302,193348
OK,62,64,629,62,2014-08-01T08:35:00,8,20749751,193348
OK,88,45,629,88,2014-08-01T08:40:00,8,20750200,193348
OK,83,48,629,83,2014-08-01T08:45:00,8,20750649,193348
OK,71,56,629,71,2014-08-01T08:50:00,8,20751098,193348
OK,66,60,629,66,2014-08-01T08:55:00,7,20751547,193348
OK,64,62,629,64,2014-08-01T09:00:00,8,20751996,193348
OK,78,51,629,78,2014-08-01T09:05:00,9,20752445,193348
OK,95,42,629,95,2014-08-01T09:10:00,11,20752894,193348
OK,104,38,629,104,2014-08-01T09:15:00,14,20753343,193348
OK,91,43,629,91,2014-08-01T09:20:00,9,20753792,193348
OK,99,40,629,99,2014-08-01T09:25:00,12,20754241,193348
OK,108,37,629,108,2014-08-01T09:30:00,9,20754690,193348
OK,76,52,629,76,2014-08-01T09:35:00,8,20755139,193348
OK,72,55,629,72,2014-08-01T09:40:00,14,20755588,193348
OK,91,43,629,91,2014-08-01T09:45:00,14,20756037,193348
OK,95,42,629,95,2014-08-01T09:50:00,10,20756486,193348
OK,96,41,629,96,2014-08-01T09:55:00,9,20756935,193348
OK,104,38,629,104,2014-08-01T10:00:00,9,20757384,193348
OK,84,47,629,84,2014-08-01T10:05:00,11,20757833,193348
OK,101,39,629,101,2014-08-01T10:10:00,12,20758282,193348
OK,103,38,629,103,2014-08-01T10:15:00,10,20758731,193348
OK,103,38,629,103,2014-08-01T10:20:00,11,20759180,193348
OK,82,48,629,82,2014-08-01T10:25:00,13,20759629,193348
OK,64,62,629,64,2014-08-01T10:30:00,11,20760078,193348
OK,86,46,629,86,2014-08-01T10:35:00,10,20760527,193348
OK,81,49,629,81,2014-08-01T10:40:00,13,20760976,193348
OK,78,51,629,78,2014-08-01T10:45:00,13,20761425,193348
OK,98,40,629,98,2014-08-01T10:50:00,12,20761874,193348
OK,100,39,629,100,2014-08-01T10:55:00,15,20762323,193348
OK,94,42,629,94,2014-08-01T11:00:00,11,20762772,193348
OK,94,42,629,94,2014-08-01T11:05:00,14,20763221,193348
OK,113,35,629,113,2014-08-01T11:10:00,19,20763670,193348
OK,116,34,629,116,2014-08-01T11:15:00,14,20764119,193348
OK,70,57,629,70,2014-08-01T11:20:00,13,20764567,193348
OK,74,54,629,74,2014-08-01T11:25:00,13,20765016,193348
OK,106,37,629,106,2014-08-01T11:30:00,11,20765465,193348
OK,108,37,629,108,2014-08-01T11:35:00,12,20765914,193348
OK,98,40,629,98,2014-08-01T11:40:00,9,20766363,193348
OK,100,39,629,100,2014-08-01T11:45:00,16,20766812,193348
OK,98,40,629,98,2014-08-01T11:50:00,22,20767261,193348
OK,128,31,629,128,2014-08-01T11:55:00,11,20767710,193348
OK,109,36,629,109,2014-08-01T12:00:00,10,20768159,193348
OK,93,42,629,93,2014-08-01T12:05:00,10,20768608,193348
OK,90,44,629,90,2014-08-01T12:10:00,14,20769057,193348
OK,88,45,629,88,2014-08-01T12:15:00,12,20769506,193348
OK,109,36,629,109,2014-08-01T12:20:00,9,20769955,193348
OK,76,52,629,76,2014-08-01T12:25:00,8,20770404,193348
OK,119,33,629,119,2014-08-01T12:30:00,10,20770853,193348
OK,133,30,629,133,2014-08-01T12:35:00,13,20771302,193348
OK,134,29,629,134,2014-08-01T12:40:00,12,20771751,193348
OK,134,29,629,134,2014-08-01T12:45:00,9,20772200,193348
OK,81,49,629,81,2014-08-01T12:50:00,6,20772649,193348
OK,85,47,629,85,2014-08-01T12:55:00,8,20773098,193348
OK,88,45,629,88,2014-08-01T13:00:00,7,20773547,193348
OK,88,45,629,88,2014-08-01T13:05:00,9,20773996,193348
OK,100,39,629,100,2014-08-01T13:10:00,14,20774445,193348
OK,118,33,629,118,2014-08-01T13:15:00,18,20774894,193348
OK,133,30,629,133,2014-08-01T13:20:00,13,20775343,193348
OK,141,28,629,141,2014-08-01T13:25:00,10,20775792,193348
OK,131,30,629,131,2014-08-01T13:30:00,10,20776241,193348
OK,133,30,629,133,2014-08-01T13:35:00,15,20776690,193348
OK,109,36,629,109,2014-08-01T13:40:00,14,20777139,193348
OK,79,50,629,79,2014-08-01T13:45:00,12,20777588,193348
OK,73,54,629,73,2014-08-01T13:50:00,14,20778037,193348
OK,116,34,629,116,2014-08-01T13:55:00,15,20778486,193348
OK,136,29,629,136,2014-08-01T14:00:00,8,20778935,193348
OK,111,36,629,111,2014-08-01T14:05:00,7,20779384,193348
OK,111,36,629,111,2014-08-01T14:10:00,11,20779833,193348
OK,121,33,629,121,2014-08-01T14:15:00,12,20780282,193348
OK,76,52,629,76,2014-08-01T14:20:00,10,20780731,193348
OK,90,44,629,90,2014-08-01T14:25:00,8,20781180,193348
OK,100,39,629,100,2014-08-01T14:30:00,13,20781629,193348
OK,95,42,629,95,2014-08-01T14:35:00,10,20782078,193348
OK,70,57,629,70,2014-08-01T14:40:00,9,20782527,193348
OK,87,45,629,87,2014-08-01T14:45:00,10,20782976,193348
OK,102,39,629,102,2014-08-01T14:50:00,10,20783425,193348
OK,101,39,629,101,2014-08-01T14:55:00,9,20783874,193348
OK,101,39,629,101,2014-08-01T15:00:00,9,20784323,193348
OK,101,39,629,101,2014-08-01T15:05:00,11,20784772,193348
OK,119,33,629,119,2014-08-01T15:10:00,7,20785221,193348
OK,63,63,629,63,2014-08-01T15:15:00,7,20785670,193348
OK,61,65,629,61,2014-08-01T15:20:00,8,20786119,193348
OK,100,39,629,100,2014-08-01T15:25:00,8,20786568,193348
OK,70,57,629,70,2014-08-01T15:30:00,13,20787017,193348
OK,70,57,629,70,2014-08-01T15:35:00,11,20787466,193348
OK,71,56,629,71,2014-08-01T15:40:00,7,20787915,193348
OK,68,58,629,68,2014-08-01T15:45:00,12,20788364,193348
OK,71,56,629,71,2014-08-01T15:50:00,10,20788813,193348
OK,73,54,629,73,2014-08-01T15:55:00,3,20789262,193348
OK,66,60,629,66,2014-08-01T16:00:00,3,20789711,193348
OK,80,49,629,80,2014-08-01T16:05:00,7,20790160,193348
OK,78,51,629,78,2014-08-01T16:10:00,10,20790609,193348
OK,61,65,629,61,2014-08-01T16:15:00,12,20791058,193348
OK,65,61,629,65,2014-08-01T16:20:00,9,20791507,193348
OK,80,49,629,80,2014-08-01T16:25:00,9,20791956,193348
OK,73,54,629,73,2014-08-01T16:30:00,8,20792405,193348
OK,62,64,629,62,2014-08-01T16:35:00,3,20792854,193348
OK,59,67,629,59,2014-08-01T16:40:00,2,20793303,193348
OK,61,65,629,61,2014-08-01T16:45:00,5,20793752,193348
OK,74,54,629,74,2014-08-01T16:50:00,3,20794201,193348
OK,76,52,629,76,2014-08-01T16:55:00,2,20794650,193348
OK,63,63,629,63,2014-08-01T17:00:00,5,20795099,193348
OK,61,65,629,61,2014-08-01T17:05:00,7,20795548,193348
OK,60,66,629,60,2014-08-01T17:10:00,7,20795997,193348
OK,53,75,629,53,2014-08-01T17:15:00,3,20796446,193348
OK,92,43,629,92,2014-08-01T17:20:00,3,20796895,193348
OK,59,67,629,59,2014-08-01T17:25:00,5,20797344,193348
OK,55,72,629,55,2014-08-01T17:30:00,4,20797793,193348
OK,55,72,629,55,2014-08-01T17:35:00,2,20798242,193348
OK,64,62,629,64,2014-08-01T17:40:00,4,20798691,193348
OK,64,62,629,64,2014-08-01T17:45:00,4,20799140,193348
OK,71,56,629,71,2014-08-01T17:50:00,6,20799589,193348
OK,58,68,629,58,2014-08-01T17:55:00,6,20800038,193348
OK,58,68,629,58,2014-08-01T18:00:00,1,20800487,193348
OK,64,62,629,64,2014-08-01T18:05:00,4,20800936,193348
OK,66,60,629,66,2014-08-01T18:10:00,6,20801385,193348
OK,59,67,629,59,2014-08-01T18:15:00,4,20801834,193348
OK,53,75,629,53,2014-08-01T18:20:00,2,20802283,193348
OK,53,75,629,53,2014-08-01T18:25:00,2,20802732,193348
OK,56,71,629,56,2014-08-01T18:30:00,1,20803181,193348
OK,56,71,629,56,2014-08-01T18:35:00,7,20803630,193348
OK,55,72,629,55,2014-08-01T18:40:00,7,20804079,193348
OK,65,61,629,65,2014-08-01T18:45:00,3,20804528,193348
OK,65,61,629,65,2014-08-01T18:50:00,1,20804977,193348
OK,57,70,629,57,2014-08-01T18:55:00,2,20805426,193348
OK,66,60,629,66,2014-08-01T19:00:00,3,20805875,193348
OK,66,60,629,66,2014-08-01T19:05:00,5,20806324,193348
OK,65,61,629,65,2014-08-01T19:10:00,5,20806773,193348
OK,57,70,629,57,2014-08-01T19:15:00,1,20807222,193348
OK,52,76,629,52,2014-08-01T19:20:00,2,20807671,193348
OK,66,60,629,66,2014-08-01T19:25:00,5,20808120,193348
OK,70,57,629,70,2014-08-01T19:30:00,4,20808569,193348
OK,61,65,629,61,2014-08-01T19:35:00,3,20809018,193348
OK,57,70,629,57,2014-08-01T19:40:00,3,20809467,193348
OK,57,70,629,57,2014-08-01T19:45:00,1,20809916,193348
OK,56,71,629,56,2014-08-01T19:50:00,5,20810365,193348
OK,60,66,629,60,2014-08-01T19:55:00,7,20810814,193348
OK,55,72,629,55,2014-08-01T20:00:00,4,20811262,193348
OK,51,78,629,51,2014-08-01T20:05:00,6,20811434,193348
OK,51,78,629,51,2014-08-01T20:10:00,4,20811636,193348
OK,62,64,629,62,2014-08-01T20:15:00,1,20811843,193348
OK,116,34,629,116,2014-08-01T20:20:00,2,20812051,193348
OK,61,65,629,61,2014-08-01T20:25:00,3,20812271,193348
OK,59,67,629,59,2014-08-01T20:30:00,2,20812484,193348
OK,66,60,629,66,2014-08-01T20:35:00,7,20812694,193348
OK,65,61,629,65,2014-08-01T20:40:00,6,20812896,193348
OK,67,59,629,67,2014-08-01T20:45:00,5,20813102,193348
OK,65,61,629,65,2014-08-01T20:50:00,5,20813313,193348
OK,65,61,629,65,2014-08-01T20:55:00,3,20813543,193348
OK,60,66,629,60,2014-08-01T21:00:00,5,20813781,193348
OK,60,66,629,60,2014-08-01T21:05:00,5,20813959,193348
OK,65,61,629,65,2014-08-01T21:10:00,7,20814198,193348
OK,65,61,629,65,2014-08-01T21:15:00,5,20814394,193348
OK,72,55,629,72,2014-08-01T21:20:00,3,20814600,193348
OK,58,68,629,58,2014-08-01T21:25:00,5,20814830,193348
OK,58,68,629,58,2014-08-01T21:30:00,3,20815105,193348
OK,60,66,629,60,2014-08-01T21:35:00,2,20815339,193348
OK,75,53,629,75,2014-08-01T21:40:00,2,20815562,193348
OK,52,76,629,52,2014-08-01T21:45:00,1,20815799,193348
OK,52,76,629,52,2014-08-01T21:50:00,1,20816040,193348
OK,53,75,629,53,2014-08-01T21:55:00,3,20816275,193348
OK,54,74,629,54,2014-08-01T22:00:00,0,20816543,193348
OK,54,74,629,54,2014-08-01T22:05:00,0,20816992,193348
OK,54,74,629,54,2014-08-01T22:10:00,0,20817314,193348
OK,56,71,629,56,2014-08-01T22:15:00,1,20817743,193348
OK,56,71,629,56,2014-08-01T22:20:00,0,20818033,193348
OK,56,71,629,56,2014-08-01T22:25:00,0,20818349,193348
OK,57,70,629,57,2014-08-01T22:30:00,1,20818683,193348
OK,57,70,629,57,2014-08-01T22:35:00,0,20818988,193348
OK,57,70,629,57,2014-08-01T22:40:00,0,20819167,193348
OK,52,76,629,52,2014-08-01T22:45:00,1,20819455,193348
OK,63,63,629,63,2014-08-01T22:50:00,2,20819690,193348
OK,65,61,629,65,2014-08-01T22:55:00,1,20819943,193348
OK,65,61,629,65,2014-08-01T23:00:00,0,20820119,193348
OK,65,61,629,65,2014-08-01T23:05:00,0,20820372,193348
OK,65,61,629,65,2014-08-01T23:10:00,0,20820602,193348
OK,65,61,629,65,2014-08-01T23:15:00,0,20820790,193348
OK,65,61,629,65,2014-08-01T23:20:00,0,20821043,193348
OK,65,61,629,65,2014-08-01T23:25:00,0,20821219,193348
OK,65,61,629,65,2014-08-01T23:30:00,0,20821444,193348
OK,65,61,629,65,2014-08-01T23:35:00,0,20821689,193348
OK,65,61,629,65,2014-08-01T23:40:00,0,20821868,193348
OK,53,75,629,53,2014-08-01T23:45:00,1,20822091,193348
OK,53,75,629,53,2014-08-01T23:50:00,1,20822358,193348
OK,53,75,629,53,2014-08-01T23:55:00,0,20822684,193348
OK,65,61,629,65,2014-08-02T00:00:00,2,20822982,193348
OK,64,62,629,64,2014-08-02T00:05:00,3,20823431,193348
OK,58,68,629,58,2014-08-02T00:10:00,1,20823880,193348
OK,59,67,629,59,2014-08-02T00:15:00,2,20824329,193348
OK,76,52,629,76,2014-08-02T00:20:00,0,20824778,193348
OK,76,52,629,76,2014-08-02T00:25:00,0,20825227,193348
OK,76,52,629,76,2014-08-02T00:30:00,0,20825676,193348
OK,76,52,629,76,2014-08-02T00:35:00,0,20826125,193348
OK,76,52,629,76,2014-08-02T00:40:00,0,20826574,193348
OK,76,52,629,76,2014-08-02T00:45:00,0,20827023,193348
OK,45,88,629,45,2014-08-02T00:50:00,1,20827472,193348
OK,50,79,629,50,2014-08-02T00:55:00,1,20827921,193348
OK,46,86,629,46,2014-08-02T01:00:00,1,20828370,193348
OK,67,59,629,67,2014-08-02T01:05:00,1,20828819,193348
OK,67,59,629,67,2014-08-02T01:10:00,0,20829268,193348
OK,67,59,629,67,2014-08-02T01:15:00,0,20829717,193348
OK,94,42,629,94,2014-08-02T01:20:00,1,20830166,193348
OK,77,51,629,77,2014-08-02T01:25:00,2,20830615,193348
OK,55,72,629,55,2014-08-02T01:30:00,2,20831064,193348
OK,52,76,629,52,2014-08-02T01:35:00,0,20831513,193348
OK,52,76,629,52,2014-08-02T01:40:00,0,20831962,193348
OK,52,76,629,52,2014-08-02T01:45:00,0,20832411,193348
OK,47,85,629,47,2014-08-02T01:50:00,2,20832860,193348
OK,47,85,629,47,2014-08-02T01:55:00,0,20833309,193348
OK,47,85,629,47,2014-08-02T02:00:00,0,20833758,193348
OK,47,85,629,47,2014-08-02T02:05:00,0,20834207,193348
OK,47,85,629,47,2014-08-02T02:10:00,0,20834656,193348
OK,47,85,629,47,2014-08-02T02:15:00,0,20835105,193348
OK,47,85,629,47,2014-08-02T02:20:00,0,20835554,193348
OK,62,64,629,62,2014-08-02T02:25:00,1,20836003,193348
OK,46,86,629,46,2014-08-02T02:30:00,1,20836452,193348
OK,46,86,629,46,2014-08-02T02:35:00,1,20836901,193348
OK,46,86,629,46,2014-08-02T02:40:00,0,20837350,193348
OK,46,86,629,46,2014-08-02T02:45:00,0,20837799,193348
OK,63,63,629,63,2014-08-02T02:50:00,1,20838248,193348
OK,63,63,629,63,2014-08-02T02:55:00,0,20838697,193348
OK,49,81,629,49,2014-08-02T03:00:00,1,20839146,193348
OK,48,83,629,48,2014-08-02T03:05:00,2,20839595,193348
OK,51,78,629,51,2014-08-02T03:10:00,4,20840044,193348
OK,51,78,629,51,2014-08-02T03:15:00,2,20840493,193348
OK,70,57,629,70,2014-08-02T03:20:00,1,20840942,193348
OK,70,57,629,70,2014-08-02T03:25:00,1,20841391,193348
OK,80,49,629,80,2014-08-02T03:30:00,1,20841840,193348
OK,61,65,629,61,2014-08-02T03:35:00,4,20842289,193348
OK,61,65,629,61,2014-08-02T03:40:00,2,20842738,193348
OK,55,72,629,55,2014-08-02T03:45:00,1,20843187,193348
OK,56,71,629,56,2014-08-02T03:50:00,1,20843636,193348
OK,55,72,629,55,2014-08-02T03:55:00,3,20844085,193348
OK,55,72,629,55,2014-08-02T04:00:00,1,20844534,193348
OK,55,72,629,55,2014-08-02T04:05:00,0,20844665,193348
OK,46,86,629,46,2014-08-02T04:10:00,1,20844995,193348
OK,46,86,629,46,2014-08-02T04:15:00,1,20845175,193348
OK,67,59,629,67,2014-08-02T04:20:00,1,20845531,193348
OK,67,59,629,67,2014-08-02T04:25:00,0,20845899,193348
OK,67,59,629,67,2014-08-02T04:30:00,0,20846087,193348
OK,93,42,629,93,2014-08-02T04:35:00,1,20846454,193348
OK,93,42,629,93,2014-08-02T04:40:00,0,20846837,193348
OK,93,42,629,93,2014-08-02T04:45:00,0,20847096,193348
OK,93,42,629,93,2014-08-02T04:50:00,0,20847462,193348
OK,93,42,629,93,2014-08-02T04:55:00,0,20847819,193348
OK,93,42,629,93,2014-08-02T05:00:00,0,20848179,193348
OK,65,61,629,65,2014-08-02T05:05:00,1,20848345,193348
OK,62,64,629,62,2014-08-02T05:10:00,2,20848697,193348
OK,68,58,629,68,2014-08-02T05:15:00,1,20848889,193348
OK,62,64,629,62,2014-08-02T05:20:00,2,20849233,193348
OK,71,56,629,71,2014-08-02T05:25:00,3,20849551,193348
OK,71,56,629,71,2014-08-02T05:30:00,3,20849758,193348
OK,50,79,629,50,2014-08-02T05:35:00,1,20850030,193348
OK,63,63,629,63,2014-08-02T05:40:00,5,20850323,193348
OK,71,56,629,71,2014-08-02T05:45:00,4,20850624,193348
OK,69,57,629,69,2014-08-02T05:50:00,3,20850982,193348
OK,69,57,629,69,2014-08-02T05:55:00,0,20851236,193348
OK,69,57,629,69,2014-08-02T06:00:00,0,20851539,193348
OK,55,72,629,55,2014-08-02T06:05:00,2,20851988,193348
OK,58,68,629,58,2014-08-02T06:10:00,1,20852437,193348
OK,58,68,629,58,2014-08-02T06:15:00,0,20852886,193348
OK,73,54,629,73,2014-08-02T06:20:00,1,20853335,193348
OK,68,58,629,68,2014-08-02T06:25:00,2,20853784,193348
OK,68,58,629,68,2014-08-02T06:30:00,2,20854233,193348
OK,93,42,629,93,2014-08-02T06:35:00,2,20854682,193348
OK,93,42,629,93,2014-08-02T06:40:00,2,20855131,193348
OK,127,31,629,127,2014-08-02T06:45:00,0,20855580,193348
OK,96,41,629,96,2014-08-02T06:50:00,4,20856029,193348
OK,75,53,629,75,2014-08-02T06:55:00,2,20856478,193348
OK,97,41,629,97,2014-08-02T07:00:00,0,20856927,193348
OK,97,41,629,97,2014-08-02T07:05:00,0,20857376,193348
OK,50,79,629,50,2014-08-02T07:10:00,1,20857825,193348
OK,62,64,629,62,2014-08-02T07:15:00,1,20858274,193348
OK,62,64,629,62,2014-08-02T07:20:00,1,20858723,193348
OK,61,65,629,61,2014-08-02T07:25:00,3,20859172,193348
OK,61,65,629,61,2014-08-02T07:30:00,4,20859621,193348
OK,94,42,629,94,2014-08-02T07:35:00,7,20860070,193348
OK,77,51,629,77,2014-08-02T07:40:00,9,20860519,193348
OK,59,67,629,59,2014-08-02T07:45:00,5,20860968,193348
OK,57,70,629,57,2014-08-02T07:50:00,3,20861417,193348
OK,56,71,629,56,2014-08-02T07:55:00,5,20861866,193348
OK,51,78,629,51,2014-08-02T08:00:00,5,20862315,193348
OK,48,83,629,48,2014-08-02T08:05:00,1,20862764,193348
OK,68,58,629,68,2014-08-02T08:10:00,5,20863213,193348
OK,53,75,629,53,2014-08-02T08:15:00,3,20863662,193348
OK,88,45,629,88,2014-08-02T08:20:00,6,20864111,193348
OK,93,42,629,93,2014-08-02T08:25:00,4,20864560,193348
OK,59,67,629,59,2014-08-02T08:30:00,5,20865009,193348
OK,59,67,629,59,2014-08-02T08:35:00,7,20865458,193348
OK,69,57,629,69,2014-08-02T08:40:00,8,20865907,193348
OK,71,56,629,71,2014-08-02T08:45:00,7,20866356,193348
OK,91,43,629,91,2014-08-02T08:50:00,6,20866805,193348
OK,62,64,629,62,2014-08-02T08:55:00,7,20867254,193348
OK,82,48,629,82,2014-08-02T09:00:00,8,20867703,193348
OK,120,33,629,120,2014-08-02T09:05:00,11,20868152,193348
OK,107,37,629,107,2014-08-02T09:10:00,11,20868601,193348
OK,73,54,629,73,2014-08-02T09:15:00,6,20869050,193348
OK,118,33,629,118,2014-08-02T09:20:00,6,20869499,193348
OK,110,36,629,110,2014-08-02T09:25:00,8,20869948,193348
OK,110,36,629,110,2014-08-02T09:30:00,0,20870397,193348
OK,79,50,629,79,2014-08-02T09:35:00,3,20870846,193348
OK,66,60,629,66,2014-08-02T09:40:00,9,20871295,193348
OK,65,61,629,65,2014-08-02T09:45:00,10,20871744,193348
OK,71,56,629,71,2014-08-02T09:50:00,10,20872193,193348
OK,82,48,629,82,2014-08-02T09:55:00,10,20872642,193348
OK,95,42,629,95,2014-08-02T10:00:00,3,20873091,193348
OK,59,67,629,59,2014-08-02T10:05:00,4,20873540,193348
OK,60,66,629,60,2014-08-02T10:10:00,7,20873989,193348
OK,64,62,629,64,2014-08-02T10:15:00,8,20874438,193348
OK,79,50,629,79,2014-08-02T10:20:00,8,20874887,193348
OK,82,48,629,82,2014-08-02T10:25:00,7,20875336,193348
OK,69,57,629,69,2014-08-02T10:30:00,7,20875785,193348
OK,75,53,629,75,2014-08-02T10:35:00,6,20876234,193348
OK,83,48,629,83,2014-08-02T10:40:00,5,20876683,193348
OK,82,48,629,82,2014-08-02T10:45:00,6,20877132,193348
OK,68,58,629,68,2014-08-02T10:50:00,12,20877581,193348
OK,71,56,629,71,2014-08-02T10:55:00,15,20878030,193348
OK,81,49,629,81,2014-08-02T11:00:00,9,20878479,193348
OK,57,70,629,57,2014-08-02T11:05:00,3,20878928,193348
OK,60,66,629,60,2014-08-02T11:10:00,6,20879377,193348
OK,69,57,629,69,2014-08-02T11:15:00,8,20879826,193348
OK,68,58,629,68,2014-08-02T11:20:00,4,20880275,193348
OK,82,48,629,82,2014-08-02T11:25:00,9,20880724,193348
OK,84,47,629,84,2014-08-02T11:30:00,8,20881173,193348
OK,53,75,629,53,2014-08-02T11:35:00,3,20881622,193348
OK,84,47,629,84,2014-08-02T11:40:00,7,20882071,193348
OK,95,42,629,95,2014-08-02T11:45:00,12,20882520,193348
OK,99,40,629,99,2014-08-02T11:50:00,9,20882969,193348
OK,96,41,629,96,2014-08-02T11:55:00,12,20883418,193348
OK,100,39,629,100,2014-08-02T12:00:00,5,20883867,193348
OK,62,64,629,62,2014-08-02T12:05:00,3,20884316,193348
OK,66,60,629,66,2014-08-02T12:10:00,6,20884765,193348
OK,66,60,629,66,2014-08-02T12:15:00,5,20885214,193348
OK,86,46,629,86,2014-08-02T12:20:00,6,20885663,193348
OK,94,42,629,94,2014-08-02T12:25:00,9,20886112,193348
OK,96,41,629,96,2014-08-02T12:30:00,5,20886561,193348
OK,74,54,629,74,2014-08-02T12:35:00,7,20887010,193348
OK,74,54,629,74,2014-08-02T12:40:00,8,20887459,193348
OK,83,48,629,83,2014-08-02T12:45:00,5,20887908,193348
OK,66,60,629,66,2014-08-02T12:50:00,8,20888357,193348
OK,65,61,629,65,2014-08-02T12:55:00,7,20888806,193348
OK,76,52,629,76,2014-08-02T13:00:00,8,20889255,193348
OK,89,44,629,89,2014-08-02T13:05:00,11,20889704,193348
OK,95,42,629,95,2014-08-02T13:10:00,9,20890153,193348
OK,88,45,629,88,2014-08-02T13:15:00,4,20890602,193348
OK,123,32,629,123,2014-08-02T13:20:00,2,20891051,193348
OK,91,43,629,91,2014-08-02T13:25:00,3,20891500,193348
OK,66,60,629,66,2014-08-02T13:30:00,5,20891949,193348
OK,122,32,629,122,2014-08-02T13:35:00,7,20892398,193348
OK,120,33,629,120,2014-08-02T13:40:00,12,20892847,193348
OK,67,59,629,67,2014-08-02T13:45:00,3,20893296,193348
OK,68,58,629,68,2014-08-02T13:50:00,4,20893745,193348
OK,69,57,629,69,2014-08-02T13:55:00,8,20894194,193348
OK,97,41,629,97,2014-08-02T14:00:00,9,20894643,193348
OK,97,41,629,97,2014-08-02T14:05:00,7,20895092,193348
OK,64,62,629,64,2014-08-02T14:10:00,10,20895541,193348
OK,64,62,629,64,2014-08-02T14:15:00,12,20895990,193348
OK,72,55,629,72,2014-08-02T14:20:00,9,20896439,193348
OK,69,57,629,69,2014-08-02T14:25:00,9,20896888,193348
OK,69,57,629,69,2014-08-02T14:30:00,7,20897337,193348
OK,91,43,629,91,2014-08-02T14:35:00,4,20897786,193348
OK,84,47,629,84,2014-08-02T14:40:00,4,20898235,193348
OK,84,47,629,84,2014-08-02T14:45:00,4,20898684,193348
OK,59,67,629,59,2014-08-02T14:50:00,5,20899133,193348
OK,60,66,629,60,2014-08-02T14:55:00,2,20899582,193348
OK,97,41,629,97,2014-08-02T15:00:00,4,20900031,193348
OK,97,41,629,97,2014-08-02T15:05:00,4,20900480,193348
OK,69,57,629,69,2014-08-02T15:10:00,4,20900929,193348
OK,71,56,629,71,2014-08-02T15:15:00,6,20901378,193348
OK,89,44,629,89,2014-08-02T15:20:00,1,20901827,193348
OK,65,61,629,65,2014-08-02T15:25:00,2,20902276,193348
OK,83,48,629,83,2014-08-02T15:30:00,5,20902725,193348
OK,79,50,629,79,2014-08-02T15:35:00,11,20903174,193348
OK,66,60,629,66,2014-08-02T15:40:00,7,20903623,193348
OK,80,49,629,80,2014-08-02T15:45:00,5,20904072,193348
OK,73,54,629,73,2014-08-02T15:50:00,6,20904521,193348
OK,64,62,629,64,2014-08-02T15:55:00,6,20904970,193348
OK,61,65,629,61,2014-08-02T16:00:00,6,20905419,193348
OK,61,65,629,61,2014-08-02T16:05:00,2,20905868,193348
OK,66,60,629,66,2014-08-02T16:10:00,3,20906317,193348
OK,66,60,629,66,2014-08-02T16:15:00,3,20906766,193348
OK,69,57,629,69,2014-08-02T16:20:00,4,20907215,193348
OK,69,57,629,69,2014-08-02T16:25:00,10,20907664,193348
OK,62,64,629,62,2014-08-02T16:30:00,6,20908113,193348
OK,54,74,629,54,2014-08-02T16:35:00,1,20908562,193348
OK,57,70,629,57,2014-08-02T16:40:00,3,20909011,193348
OK,57,70,629,57,2014-08-02T16:45:00,3,20909460,193348
OK,75,53,629,75,2014-08-02T16:50:00,1,20909909,193348
OK,75,53,629,75,2014-08-02T16:55:00,1,20910358,193348
OK,75,53,629,75,2014-08-02T17:00:00,4,20910807,193348
OK,66,60,629,66,2014-08-02T17:05:00,3,20911256,193348
OK,59,67,629,59,2014-08-02T17:10:00,5,20911705,193348
OK,60,66,629,60,2014-08-02T17:15:00,4,20912154,193348
OK,61,65,629,61,2014-08-02T17:20:00,0,20912603,193348
OK,60,66,629,60,2014-08-02T17:25:00,2,20913052,193348
OK,60,66,629,60,2014-08-02T17:30:00,3,20913501,193348
OK,60,66,629,60,2014-08-02T17:35:00,0,20913950,193348
OK,74,54,629,74,2014-08-02T17:40:00,1,20914399,193348
OK,74,54,629,74,2014-08-02T17:45:00,1,20914848,193348
OK,69,57,629,69,2014-08-02T17:50:00,1,20915297,193348
OK,53,75,629,53,2014-08-02T17:55:00,1,20915746,193348
OK,53,75,629,53,2014-08-02T18:00:00,2,20916195,193348
OK,54,74,629,54,2014-08-02T18:05:00,3,20916644,193348
OK,54,74,629,54,2014-08-02T18:10:00,3,20917093,193348
OK,61,65,629,61,2014-08-02T18:15:00,6,20917542,193348
OK,94,42,629,94,2014-08-02T18:20:00,4,20917991,193348
OK,75,53,629,75,2014-08-02T18:25:00,5,20918440,193348
OK,77,51,629,77,2014-08-02T18:30:00,6,20918889,193348
OK,84,47,629,84,2014-08-02T18:35:00,4,20919338,193348
OK,59,67,629,59,2014-08-02T18:40:00,5,20919787,193348
OK,53,75,629,53,2014-08-02T18:45:00,3,20920236,193348
OK,61,65,629,61,2014-08-02T18:50:00,3,20920685,193348
OK,61,65,629,61,2014-08-02T18:55:00,3,20921134,193348
OK,68,58,629,68,2014-08-02T19:00:00,1,20921583,193348
OK,68,58,629,68,2014-08-02T19:05:00,0,20922032,193348
OK,53,75,629,53,2014-08-02T19:10:00,3,20922481,193348
OK,54,74,629,54,2014-08-02T19:15:00,4,20922930,193348
OK,55,72,629,55,2014-08-02T19:20:00,2,20923379,193348
OK,57,70,629,57,2014-08-02T19:25:00,4,20923828,193348
OK,59,67,629,59,2014-08-02T19:30:00,3,20924277,193348
OK,60,66,629,60,2014-08-02T19:35:00,1,20924726,193348
OK,60,66,629,60,2014-08-02T19:40:00,0,20925175,193348